Tracking 35048 objects as of 19-Aug-2026
HD Live streaming from Space Station
objects crossing your sky now

SALYUT 7 DEB


SALYUT 7 DEB is no longer on orbit


NORAD ID: 15314
Int'l Code: 1982-033EA
Launch date: April 19, 1982
Source: Commonwealth of Independent States (former USSR) (CIS)
Launch site: TYURATAM MISSILE AND SPACE COMPLEX (TTMTR)
Decay date: 1985-01-10

Note: This is SATELLITE DEBRIS
Your satellite tracking list
Your tracking list is empty




NASA's NSSDC Master Catalog

Two Line Element Set (TLE):
1 15314U 82033 EA 85010.52281457  .11625823 +56238-4 +10711-2 0  9996
2 15314 051.6249 018.6204 0005659 343.3517 033.0051 16.37957080157703
Source of the keplerian elements: AFSPC